Tracking 29932 objects as of 3-Dec-2024
HD Live streaming from Space Station
objects crossing your sky now

RADUGA 1-5

Track RADUGA 1-5 now!
RADUGA 1-5 is classified as:


NORAD ID: 26477
Int'l Code: 2000-049A
Perigee: 35,782.9 km
Apogee: 35,800.2 km
Inclination: 13.6 °
Period: 1,436.0 minutes
Semi major axis: 42162 km
RCS: 10 m2 (large)
Launch date: August 28, 2000
Source: Commonwealth of Independent States (former USSR) (CIS)
Launch site: TYURATAM MISSILE AND SPACE COMPLEX (TTMTR)

Military communication.
Your satellite tracking list
Your tracking list is empty




NASA's NSSDC Master Catalog

Two Line Element Set (TLE):
1 26477U 00049A   24338.24061562  .00000128  00000-0  00000+0 0  9995
2 26477  13.6451  12.1487 0002055 126.2096  64.5185  1.00279610 88864
Source of the keplerian elements: AFSPC